Weather History for Davenport, IA

Change the Weather History Date:

Sunday, October 6, 2013

  Actual Average Record
Temperature  
Mean Temperature 47 °F 55 °F  
Max Temperature 53 °F 67 °F 92 °F (1963)
Min Temperature 41 °F 44 °F 25 °F (2012)
Degree Days  
Heating Degree Days 18 11  
Month to date heating degree days 23 59  
Since 1 July heating degree days 122 194  
Cooling Degree Days 0 1  
Month to date cooling degree days 27 6  
Year to date cooling degree days 938 780  
Moisture  
Dew Point 40 °F    
Average Humidity 73    
Maximum Humidity 96    
Minimum Humidity 50    
Precipitation  
Precipitation 0.01 in 0.08 in 1.97 in (1959)
Month to date precipitation 0.37 0.54  
Year to date precipitation 30.38 29.42  
Snow  
Snow 0.00 in - - ()
Month to date snowfall 0.0  
Since 1 July snowfall 0.0  
Since 1 September snowfall 0.0  
Snow Depth 0.00 in    
Sea Level Pressure  
Sea Level Pressure 29.79 in    
Wind  
Wind Speed 7 mph (WSW)    
Max Wind Speed 15 mph    
Max Gust Speed 18 mph    
Visibility 10 miles    
Events Rain    
T = Trace of Precipitation, MM = Missing Value Source: NWS Daily Summary

Daily Weather History Graph

Daily Weather History Graph

Search for Another Location

Airport:

Trip Planner

Search our weather history database for the weather conditions in past years. The results will help you decide how hot, cold, wet, or windy it might be!

Date:

Astronomy

Oct. 06, 2013 Rise Set
Actual Time 7:04 AM CDT 6:35 PM CDT
Civil Twilight 6:37 AM CDT 7:02 PM CDT
Nautical Twilight 6:04 AM CDT 7:35 PM CDT
Astronomical Twilight 5:32 AM CDT 8:07 PM CDT
Moon 8:51 AM CDT (10/6) 7:32 PM CDT (10/6)
Length of Visible Light 12h 25m
Length of Day
11h 30m
Waxing Crescent, 3% of the Moon is Illuminated
Oct 6
Waxing Crescent
Oct 11
First Quarter
Oct 18
Full
Oct 26
Last Quarter
Nov 3
New

Hourly Weather History & Observations

Time (CDT) Temp. Windchill Dew Point Humidity Pressure Visibility Wind Dir Wind Speed Gust Speed Precip Events Conditions
12:52 AM 46.0 °F 44.8 °F 41.0 °F 83% 29.82 in 10.0 mi SW 3.5 mph - N/A   Clear
1:52 AM 45.0 °F 42.6 °F 41.0 °F 86% 29.81 in 10.0 mi SSW 4.6 mph - N/A   Clear
2:52 AM 43.0 °F 40.3 °F 39.9 °F 89% 29.79 in 10.0 mi SSE 4.6 mph - N/A   Clear
3:52 AM 44.1 °F 40.8 °F 41.0 °F 89% 29.78 in 10.0 mi South 5.8 mph - N/A   Clear
4:52 AM 43.0 °F 39.5 °F 39.0 °F 86% 29.78 in 10.0 mi South 5.8 mph - N/A   Clear
5:52 AM 43.0 °F 39.5 °F 39.0 °F 86% 29.79 in 10.0 mi SSW 5.8 mph - N/A   Clear
6:52 AM 42.1 °F 38.4 °F 37.9 °F 85% 29.78 in 10.0 mi SSW 5.8 mph - N/A   Clear
7:52 AM 44.1 °F 39.0 °F 39.0 °F 82% 29.78 in 10.0 mi SSW 9.2 mph - N/A   Clear
8:52 AM 46.9 °F - 39.0 °F 74% 29.78 in 10.0 mi SW 9.2 mph - N/A   Clear
9:52 AM 48.9 °F - 37.9 °F 66% 29.78 in 10.0 mi WSW 11.5 mph - N/A   Clear
10:52 AM 51.1 °F - 36.0 °F 56% 29.78 in 10.0 mi WSW 9.2 mph 17.3 mph N/A   Mostly Cloudy
11:52 AM 53.1 °F - 36.0 °F 52% 29.78 in 10.0 mi SSW 13.8 mph 18.4 mph N/A   Mostly Cloudy
12:52 PM 50.0 °F - 36.0 °F 59% 29.77 in 10.0 mi WSW 10.4 mph - N/A   Overcast
1:52 PM 50.0 °F - 35.1 °F 57% 29.76 in 10.0 mi WSW 10.4 mph - N/A   Overcast
2:52 PM 50.0 °F - 37.0 °F 61% 29.76 in 10.0 mi SW 8.1 mph - N/A   Overcast
3:52 PM 46.0 °F 43.1 °F 41.0 °F 83% 29.76 in 10.0 mi West 5.8 mph - 0.00 in Rain Light Rain
4:45 PM 46.4 °F 41.9 °F 41.0 °F 81% 29.77 in 10.0 mi WSW 9.2 mph - N/A   Overcast
4:52 PM 46.0 °F 41.4 °F 39.9 °F 79% 29.78 in 10.0 mi WSW 9.2 mph - N/A   Overcast
5:52 PM 46.0 °F 43.1 °F 42.1 °F 86% 29.80 in 10.0 mi WSW 5.8 mph - 0.00 in Rain Light Rain
6:52 PM 46.0 °F 43.9 °F 42.1 °F 86% 29.80 in 10.0 mi SW 4.6 mph - 0.01 in   Overcast
7:52 PM 46.0 °F 43.1 °F 42.1 °F 86% 29.80 in 10.0 mi WSW 5.8 mph - N/A   Overcast
8:52 PM 45.0 °F 42.6 °F 43.0 °F 93% 29.81 in 10.0 mi West 4.6 mph - N/A   Overcast
9:24 PM 46.4 °F 43.5 °F 42.8 °F 87% 29.81 in 10.0 mi West 5.8 mph - N/A   Overcast
9:52 PM 46.0 °F 43.1 °F 43.0 °F 89% 29.82 in 10.0 mi West 5.8 mph - N/A   Overcast
10:06 PM 44.6 °F 41.4 °F 42.8 °F 93% 29.81 in 10.0 mi West 5.8 mph - N/A   Overcast
10:16 PM 46.4 °F 42.9 °F 42.8 °F 87% 29.82 in 10.0 mi West 6.9 mph - N/A   Overcast
10:35 PM 46.4 °F 43.5 °F 42.8 °F 87% 29.82 in 10.0 mi West 5.8 mph - N/A   Overcast
10:52 PM 45.0 °F 42.6 °F 43.0 °F 93% 29.84 in 10.0 mi WNW 4.6 mph - N/A   Mostly Cloudy
11:07 PM 44.6 °F 40.7 °F 42.8 °F 93% 29.83 in 10.0 mi West 6.9 mph - N/A   Scattered Clouds
11:52 PM 42.1 °F 40.2 °F 41.0 °F 96% 29.83 in 9.0 mi West 3.5 mph - N/A   Clear